Location: Unspecified
(0.0000°N, 0.0000°E)
Time: 07:59:55
(UTC+02:00)

Iridium 75 - Visible Passes

Search period start: 28 June 2016 00:00
Search period end: 08 July 2016 00:00
Orbit: 776 x 779 km, 86.4° (Epoch: 27 June)

Date Brightness Start Highest point End Pass type
(mag) Time Alt. Az. Time Alt. Az. Time Alt. Az.
28 Jun 8.0 20:50:56 10° NNW 20:55:27 31° W 21:00:01 10° SSW visible
30 Jun 8.8 07:11:34 10° SE 07:15:09 19° E 07:18:41 10° NE visible
01 Jul 8.8 20:51:54 10° NW 20:55:31 19° W 20:59:09 10° SW visible
03 Jul 8.1 07:10:41 10° SSE 07:15:12 30° E 07:19:42 10° NNE visible
04 Jul 9.0 06:39:18 10° ESE 06:41:45 13° E 06:44:12 10° ENE visible
04 Jul 9.2 20:53:58 10° WNW 20:55:35 11° W 20:57:13 10° WSW visible
06 Jul 7.1 07:10:15 10° SSE 07:15:17 49° E 07:20:16 10° NNE visible
07 Jul 8.5 06:37:51 10° SE 06:41:49 22° E 06:45:45 10° NE visible
